Location: Brunsen
(51.8651°N, 9.8610°E)
Time: 14:25:34
(UTC+00:00)

Cosmos 2333 Rocket - Pass Details

Date: 23 May 2024
Orbit: 839 x 863 km, 70.8° (Epoch: 12 June)

Event Time Altitude Azimuth Distance (km) Brightness Sun altitude
Rises 02:29:49 0° 324° (NW) 3,426 5.5 -6.2°
Reaches altitude 10° 02:32:25 10° 317° (NW) 2,490 4.7 -5.9°
Maximum altitude 02:37:37 37° 252° (WSW) 1,306 2.8 -5.4°
Drops below altitude 10° 02:42:49 10° 187° (S) 2,489 4.2 -4.8°
Sets 02:45:25 0° 179° (S) 3,423 5.0 -4.5°
